#timestamp,LO_Frequency,Hit,StdDev 
1615021215.0,286047000.3,N
1615021215.9,286047000.3,N
1615021235.8,286047000.6,N
1615021255.6,286047002.8,N
1615021275.4,286047004.0,N
1615021295.3,286047002.1,N
1615021315.1,286046999.9,N
1615021335.8,286047000.9,N
1615021355.7,286047000.5,N
1615021375.5,286047000.9,N
1615021395.4,286047000.5,N
1615021415.2,286046999.9,N
1615021435.0,286047000.1,N
1615021435.9,286047000.1,N
1615021455.8,286047001.3,N
1615021475.6,286047003.7,N
1615021495.4,286047005.6,Y
1615021515.3,286047005.6,P
1615021535.1,286047003.6,N
1615021555.9,286047004.0,N
1615021575.7,286047004.4,N
1615021595.5,286047001.6,N
1615021615.4,286047005.5,Y
1615021635.2,286046999.8,P
1615021655.0,286047002.1,N
1615021656.0,286047002.1,N
1615021675.8,286046999.9,N
1615021695.6,286047000.6,N
1615021715.5,286047002.4,N
1615021735.3,286047000.4,N
1615021755.1,286047000.9,N
1615021775.9,286047001.1,N
1615021795.7,286046999.4,N
1615021815.5,286046999.5,N
1615021835.4,286046999.5,N
1615021855.2,286046999.4,N
1615021875.1,286046998.3,N
1615021876.0,286046998.3,N
1615021895.8,286046998.6,N
1615021915.6,286047000.5,N
1615021935.5,286046999.8,N
1615021955.3,286047000.3,N
1615021975.1,286047000.9,N
1615021995.9,286047001.2,N
1615022015.7,286047000.4,N
1615022035.6,286046998.1,N
1615022055.4,286046998.1,N
1615022075.2,286046996.5,N
1615022095.1,286046998.2,N
1615022096.0,286046998.2,N
1615022115.8,286046999.4,N
1615022135.6,286046999.2,N
1615022155.5,286046999.5,N
1615022175.3,286046999.5,N
1615022195.2,286046998.3,N
1615022215.9,286046998.6,N
1615022235.7,286046998.7,N
1615022255.6,286046998.3,N
1615022275.4,286046999.2,N
1615022295.2,286047000.7,N
1615022315.1,286046998.3,N
1615022316.0,286046998.3,N
1615022335.8,286046999.0,N
1615022355.7,286046996.8,Y
1615022375.5,286046996.7,P
1615022395.3,286046998.3,N
1615022415.2,286047002.8,N
1615022435.0,286047000.5,N
1615022435.9,286047000.5,N
1615022455.7,286046998.1,N
1615022475.6,286047000.1,N
1615022495.4,286047000.7,N
1615022515.3,286047002.6,N
1615022535.1,286047000.0,N
1615022536.0,286047000.0,N
1615022555.8,286047001.2,N
1615022575.7,286046998.5,N
1615022595.5,286047000.3,N
1615022615.3,286047001.2,N
1615022635.2,286046999.4,N
1615022655.0,286046998.6,N
1615022655.9,286046998.6,N
1615022675.8,286046999.0,N
1615022695.6,286046998.6,N
1615022715.4,286046999.0,N
1615022735.3,286046998.5,N
1615022755.1,286047000.5,N
1615022775.8,286047000.8,N
1615022795.7,286047000.4,N
1615022815.5,286047000.7,N
1615022835.4,286046998.8,N
1615022855.2,286047000.6,N
1615022875.0,286047002.8,N
1615022875.9,286047002.8,N
1615022895.8,286047002.6,N
1615022915.6,286047002.7,N
1615022935.4,286047002.3,N
1615022955.3,286047002.4,N
1615022975.1,286047002.8,N
1615022995.9,286047002.4,N
1615023015.7,286047001.3,N
1615023035.5,286047003.8,N
1615023055.4,286047005.1,Y
1615023075.2,286047005.8,P
1615023095.0,286047007.4,N
1615023095.9,286047007.4,N
1615023115.8,286047007.7,N
1615023135.6,286047008.5,Y
1615023155.5,286047001.3,P
1615023175.3,286047001.5,N
1615023195.1,286046999.7,N
1615023215.9,286047002.5,N
1615023235.7,286047001.8,N
1615023255.5,286047003.9,N
1615023275.4,286047001.3,N
1615023295.2,286047002.9,N
1615023315.1,286047005.2,Y
1615023316.0,286047005.2,P
1615023335.8,286047001.6,N
1615023355.6,286046999.8,N
1615023375.5,286047001.8,N
1615023395.3,286047001.8,N
1615023415.1,286047004.1,N
1615023435.9,286047005.8,Y
1615023455.7,286047002.5,P
1615023475.6,286047002.8,P
1615023495.4,286047000.1,N
1615023515.2,286047000.1,N
1615023535.1,286047000.7,N
1615023536.0,286047000.7,N
1615023555.8,286046998.2,N
1615023575.7,286047000.6,N
1615023595.5,286046998.6,N
1615023615.3,286046999.3,N
1615023635.2,286046998.8,N
1615023655.9,286046998.3,N
1615023675.7,286046999.5,N
1615023695.6,286046998.1,N
1615023715.4,286046996.9,N
1615023735.3,286046998.3,N
1615023755.1,286047000.4,N
1615023756.0,286047000.4,N
1615023775.8,286047000.1,N
1615023795.7,286047000.3,N
1615023815.5,286046998.6,N
1615023835.3,286046996.9,N
1615023855.2,286047001.2,N
1615023875.0,286046998.7,N
1615023875.9,286046998.7,N
1615023895.8,286046996.9,N
1615023915.6,286046996.5,N
1615023935.4,286046997.3,N
1615023955.3,286046997.1,N
1615023975.1,286046997.0,N
1615023995.8,286046999.4,N
1615024015.7,286047001.2,N
1615024035.5,286047002.6,N
1615024055.4,286047002.7,N
1615024075.2,286047001.6,N
1615024095.0,286047004.2,N
1615024095.9,286047004.2,N
1615024115.8,286047005.9,N
1615024135.6,286047003.6,N
1615024155.4,286047001.6,N
1615024175.3,286047004.2,N
1615024195.1,286047002.8,N
1615024215.9,286047001.9,N
1615024235.7,286047000.2,N
1615024255.5,286046999.8,N
1615024275.4,286046999.7,N
1615024295.2,286047000.2,N
1615024315.0,286047002.2,N
1615024315.9,286047002.2,N
1615024335.8,286047004.2,N
1615024355.6,286047002.9,N
1615024375.5,286047004.1,N
1615024395.3,286047003.9,N
1615024415.1,286047002.1,N
1615024435.9,286046999.7,N
1615024455.7,286047003.7,N
1615024475.5,286047001.6,N
1615024495.4,286047002.4,N
1615024515.2,286047003.9,N
1615024535.1,286047005.9,Y
1615024536.0,286047005.9,P
1615024555.8,286047002.2,N
1615024575.6,286046999.8,N
1615024595.5,286047000.7,N
1615024615.3,286047001.1,N
1615024635.1,286046998.7,N
1615024655.9,286046998.1,N
1615024675.7,286047001.5,N
1615024695.6,286047000.7,N
1615024715.4,286046998.4,N
1615024735.2,286046998.8,N
1615024755.1,286047001.2,N
1615024756.0,286047001.2,N
1615024775.8,286047001.0,N
1615024795.6,286047000.2,N
